Presure
203 200 201 207 209 184 180 189 192 201 211 185 175 173 173 176 163 161 161 162 162 164 163 157 166 169 176 144 168 167 170 173 167 150 156 145 157 163 163 189 172 170 177 153 179
200 199 194 179 168 168 174 179 184 186 190 189 200 207 190 178 182 182 177 171 171 170 167 167 168 167 168 174 174 175 165 166 161 163 164 152 154 166 174 178 191 179 176 178 174
165 164 174 163 160 180 180 189 195 191 184 206 197 189 194 198 201 207 191 191 195 187 178 172 177 180 180 173 170 174 180 163 121 183 104 159 153 163 168 170 147 189 161 163 166
163 173 158 181 188 190 187 202 201 217 183 252 269 266 181 293 365 470 248 228 222 195 206 199 183 186 180 185 187 186 169 159 161 183 176 116 81 156 177 154 170 156 164 158 161
183 173 184 179 184 185 212 197 224 225 240 249 250 289 351 465 434 414 336 328 410 262 236 225 212 210 193 193 189 188 172 157 167 159 162 179 155 152 155 150 160 160 163 165 170
181 188 173 180 190 199 186 202 203 217 230 242 266 328 448 422 409 393 371 372 374 371 393 328 242 234 220 205 206 196 174 180 168 166 169 161 161 65 77 83 165 159 157 159 147
188 173 189 183 189 191 193 193 192 224 226 252 257 419 408 383 387 420 433 409 377 374 354 367 376 261 244 238 225 207 197 194 183 179 162 169 167 95 89 161 163 145 159 153 155
185 170 182 190 194 185 193 185 190 211 223 241 259 400 381 401 447 540 541 520 510 527 361 342 349 364 378 248 246 236 221 204 193 190 183 177 161 160 155 163 161 164 147 157 152
171 168 179 189 185 186 188 191 194 194 226 239 310 420 398 437 555 512 520 522 519 336 496 515 333 337 356 371 272 242 242 232 211 199 191 195 170 166 163 167 168 167 161 158 160
175 174 167 191 177 185 190 191 197 198 220 247 278 435 405 430 522 487 234 439 402 513 494 483 517 470 333 345 364 354 236 235 226 211 211 187 93 168 166 169 106 169 168 162 154
180 177 165 184 180 183 191 191 202 202 211 263 298 367 409 413 489 480 406 401 472 469 474 514 489 479 464 340 337 361 386 239 225 220 220 217 190 132 121 169 163 172 176 168 168
172 167 164 175 172 182 191 181 192 206 202 263 269 326 404 423 495 468 417 404 402 403 434 386 207 468 458 449 331 330 355 383 300 224 226 214 208 165 176 172 177 169 170 167 162
161 157 163 178 173 182 191 183 195 193 202 277 279 279 386 421 513 466 418 395 414 426 395 145 413 414 424 433 467 324 327 360 416 389 224 213 208 197 183 198 180 157 176 176 166
163 156 158 174 171 179 183 184 210 197 198 264 276 282 164 405 516 478 447 377 393 411 125 405 414 402 406 436 464 431 314 330 353 438 344 219 198 196 189 187 152 197 143 166 176
166 156 156 171 172 167 180 185 204 182 200 258 247 265 282 406 416 429 452 367 379 388 127 204 425 451 407 426 466 513 302 305 337 355 410 334 216 196 187 184 179 194 198 200 194
164 164 152 166 175 172 183 189 187 186 215 222 239 245 271 288 412 397 435 411 372 396 390 93 405 433 326 428 440 458 508 294 316 335 390 419 308 214 194 189 172 165 188 196 161
149 164 154 174 174 173 188 191 185 191 214 240 239 251 255 275 307 418 411 434 380 382 391 387 396 417 416 402 393 400 461 401 299 318 301 399 354 291 208 190 185 133 191 192 196
167 163 147 173 166 165 184 182 184 187 205 216 237 239 253 261 277 298 401 433 427 367 397 411 397 399 412 387 362 382 385 397 283 301 321 397 393 311 283 206 189 107 188 189 198
173 161 161 164 155 171 169 176 181 189 199 190 215 236 238 252 260 274 302 450 430 412 405 393 387 393 404 401 379 383 401 389 331 290 306 319 403 396 301 268 201 190 189 190 189
169 171 166 158 172 170 171 171 179 182 193 189 215 225 233 239 257 259 276 318 430 420 384 392 399 395 385 399 395 394 403 385 383 274 293 309 377 386 342 298 241 203 196 191 194
161 167 167 162 160 169 167 170 186 181 189 218 211 209 231 234 241 257 261 272 368 431 415 387 417 405 394 398 385 405 415 378 361 342 270 284 344 373 385 312 290 228 207 198 197
161 166 161 168 158 163 170 167 170 176 187 204 201 210 208 229 234 240 248 264 269 295 421 389 403 397 390 410 390 399 412 414 358 328 298 271 279 363 368 385 303 281 228 210 200
152 163 163 166 163 154 172 170 166 182 189 195 203 217 209 221 232 233 237 244 262 263 276 414 385 412 382 398 407 392 397 408 360 288 273 280 288 356 352 359 361 297 264 230 213
161 162 162 164 164 170 169 174 175 175 200 209 188 207 216 208 224 232 233 238 239 261 260 270 431 410 399 397 403 390 399 391 296 278 285 340 340 344 344 340 340 363 288 247 230
166 164 164 171 168 170 162 170 179 173 170 204 218 201 222 210 208 221 230 230 237 240 255 262 274 322 407 400 391 402 394 377 281 270 319 335 346 334 330 329 326 325 350 280 244
164 163 163 170 155 162 170 171 178 191 177 175 212 218 201 221 212 222 219 230 228 233 245 249 258 271 284 403 380 384 399 389 378 300 271 318 401 420 349 336 333 345 357 327 277
164 168 162 170 162 169 173 158 180 173 169 180 177 218 207 207 206 219 221 221 225 230 233 244 250 255 268 278 393 397 383 389 382 373 324 275 315 380 397 375 329 324 331 355 333
Wind_Speed
18 20 21 23 26 32 37 41 49 55 61 76 82 87 92 97 99 100 101 102 103 102 99 96 100 102 102 78 94 91 84 79 80 85 90 103 97 91 86 84 75 72 73 73 73
17 19 21 20 22 28 34 40 46 56 62 71 78 88 98 102 108 109 113 113 113 112 110 110 108 106 104 104 100 95 78 84 96 91 91 102 98 92 90 81 79 73 75 77 75
13 19 20 28 34 33 38 43 50 55 63 68 78 87 94 101 110 118 121 121 124 121 117 110 118 117 114 108 100 97 89 102 61 103 46 101 95 96 92 79 63 75 77 81 76
21 23 33 31 39 43 45 51 54 61 70 72 82 76 93 77 104 61 116 128 134 111 131 131 115 120 111 116 118 109 97 96 96 105 102 66 44 94 98 75 84 75 79 82 77
28 27 35 36 44 46 57 54 73 76 86 89 85 102 89 64 61 62 83 86 64 126 136 139 139 140 125 123 117 105 103 103 104 94 96 107 89 105 89 81 82 79 75 80 82
31 38 32 42 48 60 49 71 74 87 92 99 106 103 67 60 56 58 60 62 64 71 68 105 142 146 145 135 135 122 110 115 102 95 101 98 102 26 38 46 89 81 74 77 78
41 34 46 45 59 65 69 70 70 97 102 107 115 80 68 64 58 52 53 56 64 64 66 72 75 142 145 144 147 134 129 125 114 111 96 107 104 66 56 101 95 82 80 78 83
43 38 52 63 70 68 79 72 80 100 107 115 119 81 74 68 59 38 33 29 32 33 65 73 75 75 74 145 149 145 143 132 125 124 114 114 99 115 103 105 100 97 79 83 83
42 41 61 72 72 78 84 88 91 92 111 118 99 79 74 68 30 31 34 27 21 32 27 29 75 77 77 78 135 146 144 142 138 130 123 118 112 123 111 111 106 104 94 89 87
49 53 54 75 72 84 91 95 102 100 115 113 107 83 78 72 41 37 30 28 25 13 16 19 24 44 81 80 80 103 140 136 138 136 132 117 50 124 119 117 52 109 103 94 86
55 63 57 76 79 85 93 99 108 108 116 109 112 110 86 76 38 31 37 28 27 13 8 10 18 33 49 78 77 83 92 142 134 135 138 133 124 90 44 124 111 115 112 101 100
53 60 61 75 75 87 95 95 106 110 116 106 106 117 89 77 32 23 34 29 23 18 12 6 27 19 35 47 78 79 86 94 127 133 133 132 130 103 131 120 124 118 114 106 100
48 51 63 77 81 89 96 98 104 112 117 102 106 114 102 84 39 29 33 36 28 20 11 24 6 15 26 37 41 78 78 82 83 108 133 131 132 128 116 135 129 98 113 112 102
55 52 59 79 81 86 97 100 102 107 110 100 111 118 44 86 43 34 28 39 30 24 15 5 5 12 21 27 30 54 73 75 85 77 120 134 126 127 129 128 91 130 81 103 113
59 49 56 76 82 75 95 100 104 106 111 106 111 120 128 94 81 63 39 43 38 29 14 12 20 7 11 15 14 18 73 75 79 87 90 121 135 127 132 134 120 126 125 123 122
61 65 55 74 79 86 94 98 107 106 106 112 110 108 121 127 84 80 40 41 47 31 29 9 17 14 9 17 17 11 26 73 76 81 83 79 125 139 134 134 121 104 125 123 92
45 64 56 76 83 88 92 99 104 102 107 105 105 109 116 124 124 76 63 36 40 35 25 27 22 21 16 19 21 12 12 53 74 78 74 76 106 130 138 133 131 85 126 118 115
57 59 47 74 75 76 91 100 97 103 104 105 102 106 111 114 126 133 75 39 31 48 27 18 13 16 21 26 27 18 30 41 73 72 77 74 83 120 126 136 136 63 125 121 123
58 58 61 70 62 83 82 95 92 99 105 106 104 100 104 116 119 123 132 45 39 36 32 27 20 16 12 22 22 25 26 40 60 69 72 76 60 70 120 129 139 135 134 123 114
57 63 67 62 79 82 90 90 94 99 103 100 102 103 103 106 118 116 125 125 52 38 47 36 22 14 14 8 13 20 26 47 52 66 71 74 60 64 104 119 136 139 137 133 124
56 62 66 66 68 81 82 87 95 98 103 94 100 105 103 104 110 119 119 124 93 41 38 44 27 26 19 9 12 11 16 46 51 57 60 63 62 59 65 114 117 139 141 138 134
55 61 62 70 64 75 83 79 85 94 101 99 100 99 104 104 105 107 118 125 118 127 46 46 34 20 19 17 11 14 15 29 47 52 59 58 62 55 56 58 114 119 139 141 138
50 60 63 68 69 59 83 86 79 94 98 99 97 95 101 101 102 104 106 116 123 110 126 48 44 22 21 18 11 15 20 24 40 44 45 49 54 58 59 59 68 115 124 137 142
56 58 62 66 69 75 78 84 85 88 91 92 98 95 95 101 99 101 101 107 110 119 107 118 32 28 21 13 13 11 15 25 30 32 35 43 46 54 59 62 63 60 117 129 136
55 56 61 66 70 74 68 80 84 82 81 89 85 90 90 93 98 98 100 99 104 107 115 112 120 94 22 15 9 7 12 17 22 22 29 35 47 51 56 62 65 71 69 119 130
52 55 60 64 59 68 75 79 79 81 88 88 89 85 88 91 93 94 93 95 93 95 106 108 110 116 113 16 18 6 9 18 19 24 25 25 21 32 56 57 56 53 59 84 122
51 54 59 62 65 70 73 65 76 82 78 88 89 86 85 84 87 92 92 91 89 94 92 103 105 103 111 106 23 7 8 11 19 20 21 24 23 26 37 51 57 56 55 51 76
Wind_Direction
310 294 289 289 288 281 277 271 265 263 262 257 254 252 250 246 247 248 249 248 248 249 248 249 247 247 244 244 241 239 238 234 234 234 234 241 244 243 240 247 238 239 242 243 241
312 320 311 301 283 271 273 273 271 268 265 260 260 258 254 252 251 248 246 247 246 245 245 246 245 244 245 243 242 241 235 239 238 231 232 240 240 243 244 242 239 237 239 240 237
303 290 302 286 283 290 287 290 287 279 272 275 269 261 259 258 256 253 249 248 247 245 247 250 247 246 243 245 243 241 239 239 231 243 207 236 241 239 240 238 236 234 237 239 236
306 322 299 313 320 317 312 312 309 313 290 312 314 310 276 302 289 295 253 249 246 254 244 244 252 249 250 244 242 242 238 237 238 239 237 231 231 242 243 240 234 233 233 241 241
343 322 335 325 329 322 333 329 329 332 328 325 324 318 319 311 301 291 275 269 267 249 245 244 244 244 248 246 246 245 241 240 237 236 237 238 244 244 239 240 238 236 235 238 241
345 344 331 336 336 344 331 342 342 338 335 334 328 330 323 316 304 291 279 273 265 259 254 244 242 242 243 243 244 244 243 239 241 238 236 239 242 252 248 252 239 238 234 239 242
350 346 343 344 349 349 346 348 343 340 341 334 339 336 332 324 314 302 293 281 269 258 251 248 245 237 240 239 241 242 240 239 240 237 238 237 238 235 240 244 242 235 234 234 240
353 345 353 355 353 353 353 351 349 348 343 343 343 345 338 334 331 327 318 307 292 282 248 243 242 241 236 236 238 238 238 239 238 237 235 235 238 243 244 245 243 241 233 232 236
352 348 1 358 357 355 356 352 354 354 348 344 356 351 347 347 351 340 336 343 317 275 271 251 238 236 234 229 234 236 236 234 237 237 236 233 234 241 243 244 243 243 241 237 235
359 357 354 357 359 357 354 353 355 355 355 345 346 358 357 353 358 356 313 352 333 331 261 240 234 229 231 228 223 226 235 234 232 235 236 235 240 235 241 242 245 243 241 240 239
0 4 1 358 360 358 354 356 352 357 357 349 6 4 4 1 354 356 357 351 12 2 315 255 227 225 223 227 224 221 220 233 232 231 231 233 231 241 222 239 242 243 242 241 239
2 4 4 3 4 359 356 3 356 356 0 353 357 12 6 8 6 358 359 1 357 358 4 272 256 227 227 224 222 220 218 218 228 231 230 231 233 231 236 240 238 240 241 241 241
3 359 4 2 5 359 358 3 356 3 358 5 11 14 10 11 12 19 9 8 13 19 347 234 245 217 217 226 225 219 218 217 217 216 228 229 230 232 232 235 238 239 242 242 243
7 1 3 3 5 0 3 1 354 1 357 7 15 18 17 13 13 20 22 15 17 8 225 332 277 227 220 216 218 213 213 212 215 218 215 224 227 229 235 236 236 237 228 241 243
6 2 4 4 5 6 3 359 2 3 357 13 9 17 22 15 18 18 16 21 20 20 284 315 22 24 220 205 202 216 210 209 212 214 218 215 223 227 230 234 237 235 236 237 239
4 6 1 5 3 8 2 359 9 360 357 359 8 13 25 27 19 21 18 13 20 19 21 240 34 33 220 129 105 171 211 208 209 211 214 218 213 222 226 230 233 235 235 233 231
356 5 2 5 6 7 1 4 4 359 360 7 10 19 20 29 28 23 23 22 24 22 20 17 24 51 125 133 123 170 186 206 207 207 211 216 215 214 222 227 232 233 238 238 238
3 6 357 6 9 10 2 11 2 5 1 3 11 12 23 26 32 30 24 22 23 25 30 35 35 59 130 146 178 178 186 194 206 206 208 213 216 213 215 221 229 230 235 235 235
3 5 6 10 7 7 8 8 6 5 3 8 7 13 17 24 28 33 31 26 29 30 35 36 34 43 75 160 186 173 170 187 202 204 206 211 217 219 212 215 223 229 233 235 236
5 5 7 9 5 5 9 7 6 7 5 8 9 12 16 23 28 28 34 31 28 26 30 34 32 41 51 74 153 181 183 185 188 207 205 211 213 217 217 213 216 225 231 235 235
5 6 7 8 10 6 6 7 1 8 6 9 9 9 17 19 26 30 31 34 29 26 30 30 43 57 57 98 144 145 182 189 194 198 210 211 213 217 221 216 212 218 225 231 235
5 3 6 6 9 8 2 7 7 9 6 6 9 11 12 20 23 27 30 32 36 34 29 26 35 52 53 57 139 146 161 195 194 202 208 215 218 210 219 223 217 213 220 226 231
4 1 3 4 6 9 0 3 10 5 4 4 9 14 12 16 23 23 26 30 33 34 35 28 28 38 35 50 122 154 168 189 196 208 216 220 222 213 217 219 222 216 214 220 226
357 358 359 3 4 1 2 1 4 8 4 9 6 12 17 14 19 24 26 29 30 32 34 34 30 32 34 43 94 149 164 187 212 217 224 223 221 218 215 218 218 218 216 215 220
353 353 356 359 0 360 3 3 2 6 10 5 11 8 20 17 14 18 22 24 29 30 31 33 34 33 28 30 36 120 178 192 223 227 223 226 225 227 226 226 219 218 215 217 216
352 352 355 357 4 2 359 360 1 1 3 8 7 13 10 22 18 20 18 23 22 28 31 31 32 34 32 18 9 11 182 193 214 225 225 221 214 218 219 217 216 220 216 217 217
350 350 354 355 360 356 355 7 358 2 6 2 7 11 8 14 15 22 20 18 20 23 27 29 29 31 33 31 16 336 302 228 222 227 231 232 225 209 214 219 219 218 215 214 218